DateTimeUTC,F1_A11,F1_S11,BsB_S11,BsG_S11,BsR_S11,BbsB_S11,BbsG_S11,BbsR_S11,BaB_A11,BaG_A11,BaR_A11,Tu_S11,T_S11,Uu_S11,U_S11,P_S11,T1_A11
2021-06-08T20:00:00Z,00000200,20000000,,,,,,,-000.23,-000.17,-000.19,18.8,25.5,05.9,03.9,0669.9,31.1
2021-06-08T20:01:00Z,00000200,20000000,,,,,,,-000.02,-000.01,-000.10,18.8,25.5,05.9,03.9,0669.9,31.1
2021-06-08T20:02:00Z,00000200,20000000,,,,,,,0000.23,0000.18,0000.38,18.8,25.5,05.9,03.9,0669.9,31.1
2021-06-08T20:03:00Z,00000200,60000000,,,,,,,0000.11,0000.01,-000.20,18.8,25.5,05.9,03.9,0669.9,31.1
2021-06-08T20:04:00Z,00000200,40000000,0000.36,0000.78,0000.54,0000.42,0000.15,0000.27,-000.19,0000.32,-000.07,18.9,25.3,05.8,03.9,0670.8,31.1
2021-06-08T20:05:00Z,00000200,00000000,0001.24,0000.54,0000.55,0000.32,-000.31,0000.13,0000.50,0000.30,0000.54,19.0,25.3,05.7,03.9,0670.9,31.1
2021-06-08T20:06:00Z,00000200,00000000,0000.64,0000.67,0000.20,0000.49,-000.24,0000.44,-000.01,0000.11,0000.21,19.0,25.3,05.9,04.0,0670.9,31.1
2021-06-08T20:07:00Z,00000200,00000000,0000.98,0000.56,0000.58,-000.05,0000.15,0000.22,0000.37,0000.01,0000.13,19.0,25.3,05.8,03.9,0670.9,31.1
2021-06-08T20:08:00Z,00000200,00000000,0000.81,0000.48,0000.25,0000.01,0000.00,0000.40,-000.08,-000.22,-000.35,19.0,25.3,05.7,03.9,0670.9,31.1
2021-06-08T20:09:00Z,00000200,00000000,0000.36,0000.43,0000.29,0000.08,0000.07,0000.43,0000.35,0000.37,0000.42,19.0,25.3,05.8,03.9,0670.9,31.1
2021-06-08T20:10:00Z,00000200,00000000,0001.28,0000.80,0000.42,0000.31,0000.13,0000.26,0000.26,0000.33,0000.34,19.0,25.3,05.6,03.8,0670.9,31.1
2021-06-08T20:11:00Z,00000200,00000000,0001.43,0000.40,0000.66,0000.48,-000.19,0000.14,-000.05,0000.27,0000.02,19.0,25.3,05.6,03.8,0670.9,31.1
2021-06-08T20:12:00Z,00000200,00000000,0001.69,0000.72,0000.39,-000.09,0000.16,-000.04,0000.23,0000.14,-000.08,19.0,25.2,05.6,03.8,0670.9,31.1
2021-06-08T20:13:00Z,00000200,00000000,0001.53,0000.77,0000.21,-000.26,-000.11,0000.11,0000.47,-000.06,0000.27,19.0,25.2,05.5,03.8,0670.9,31.1
2021-06-08T20:14:00Z,00000200,00000000,0000.51,0000.63,0000.45,-000.11,0000.23,0000.05,0000.08,-000.14,0000.06,18.9,25.2,05.4,03.7,0670.8,31.1
2021-06-08T20:15:00Z,00000200,00000000,0001.26,0000.40,0000.10,-000.01,-000.02,0000.06,0000.34,0000.70,0000.17,19.0,25.2,05.4,03.7,0670.8,31.0
2021-06-08T20:16:00Z,00000200,00000000,0000.35,0000.48,0000.41,0000.14,-000.04,0000.33,-000.08,0000.12,0000.34,18.9,25.2,05.5,03.8,0670.8,31.1
2021-06-08T20:17:00Z,00000200,00000000,0001.09,0000.67,0000.28,0000.27,0000.04,0000.31,0000.54,0000.33,0000.19,18.9,25.2,05.6,03.8,0670.8,31.1
2021-06-08T20:18:00Z,00000200,00000000,0000.56,0000.78,0000.55,0000.11,0000.03,0000.22,0000.13,0000.31,0000.11,18.9,25.2,05.6,03.8,0670.8,31.1
2021-06-08T20:19:00Z,00000200,00000000,0000.17,0000.38,0000.58,0000.35,-000.10,0000.21,0000.23,0000.33,0000.33,19.0,25.2,05.7,03.9,0670.8,31.1
2021-06-08T20:20:00Z,00000200,00000000,0000.67,0000.50,0000.41,0000.14,-000.19,0000.02,0000.48,0000.07,0000.03,18.9,25.2,05.6,03.9,0670.8,31.0
2021-06-08T20:21:00Z,00000200,00000000,0000.73,0000.56,0000.15,0000.50,-000.12,0000.17,0000.14,0000.14,0000.72,18.9,25.2,05.6,03.9,0670.8,31.0
2021-06-08T20:22:00Z,00000200,00000000,0000.57,0001.03,0000.58,0000.13,0000.01,0000.57,0000.56,-000.09,-000.42,18.9,25.2,05.7,03.9,0670.8,31.1
2021-06-08T20:23:00Z,00000200,00000000,0000.29,0000.76,0000.47,-000.12,0000.14,0000.18,-000.12,0000.59,0000.29,18.9,25.2,05.7,03.9,0670.8,31.1
2021-06-08T20:24:00Z,00000200,00000000,0000.99,0000.46,0000.49,0000.03,0000.08,0000.15,0000.47,0000.07,0000.23,18.9,25.2,05.8,03.9,0670.8,31.0
2021-06-08T20:25:00Z,00000200,00000000,0000.75,0000.44,0000.31,0000.18,0000.02,0000.33,0000.02,0000.49,0000.07,18.9,25.2,05.6,03.8,0670.7,31.0
2021-06-08T20:26:00Z,00000200,00000000,0000.96,0000.65,0000.51,0000.23,0000.05,0000.37,0000.41,0000.41,0000.13,18.9,25.2,05.6,03.8,0670.7,31.1
2021-06-08T20:27:00Z,00000200,00000000,0000.51,0000.51,0000.20,-000.23,0000.44,0000.26,0000.33,0000.01,0000.11,18.9,25.2,05.7,03.9,0670.7,31.1
2021-06-08T20:28:00Z,00000200,00000000,0000.74,0000.47,0000.46,0000.26,0000.06,-000.05,-000.20,0000.16,0000.21,18.9,25.2,05.6,03.8,0670.7,31.0
2021-06-08T20:29:00Z,00000200,00000000,0000.89,0000.60,0000.72,0000.28,-000.10,0000.23,0000.26,0000.16,0000.19,18.9,25.2,05.6,03.8,0670.7,31.1
2021-06-08T20:30:00Z,00000200,00000000,0000.92,0000.59,0000.63,0000.26,-000.12,0000.05,0000.14,0000.36,-000.12,18.9,25.2,05.6,03.8,0670.7,31.1
2021-06-08T20:31:00Z,00000200,00000000,0001.18,0000.43,0000.20,0000.53,0000.05,0000.38,-000.04,-000.36,0000.47,18.9,25.2,05.5,03.8,0670.7,31.1
2021-06-08T20:32:00Z,00000200,00000000,0000.93,0000.65,0000.22,-000.27,0000.25,0000.02,0000.03,0000.59,-000.06,18.9,25.2,05.5,03.8,0670.7,31.1
2021-06-08T20:33:00Z,00000200,00000000,0000.94,0000.35,0000.37,-000.28,0000.00,0000.12,0000.56,-000.28,-000.12,18.9,25.2,05.4,03.7,0670.7,31.1
2021-06-08T20:34:00Z,00000200,00000000,0000.74,0000.49,0000.46,-000.26,0000.30,0000.38,0000.32,0000.41,0000.35,18.9,25.2,05.6,03.8,0670.7,31.1
2021-06-08T20:35:00Z,00000200,00000000,0000.54,0000.61,0000.27,0000.02,0000.19,0000.40,0000.19,0000.29,0000.09,18.9,25.2,05.6,03.8,0670.7,31.1
2021-06-08T20:36:00Z,00000200,00000000,0001.24,0000.57,0000.25,0000.27,0000.14,0000.27,0000.20,0000.06,0000.34,18.9,25.2,05.5,03.8,0670.7,31.1
2021-06-08T20:37:00Z,00000200,00000000,0001.33,0000.94,0000.46,0000.30,0000.11,0000.08,0000.43,0000.23,0000.21,18.9,25.2,05.4,03.7,0670.6,31.0
2021-06-08T20:38:00Z,00000200,00000000,0000.82,0000.44,0000.23,-000.33,0000.08,0000.22,-000.03,0000.24,-000.07,18.9,25.2,05.5,03.7,0670.6,31.1
2021-06-08T20:39:00Z,00000200,00000000,0000.94,0000.46,0000.27,0000.27,-000.01,0000.43,0000.15,-000.02,0000.48,18.9,25.2,05.4,03.7,0670.6,31.1
2021-06-08T20:40:00Z,00000200,00000000,0000.88,0000.73,0000.50,0000.00,0000.34,0000.41,0000.34,0000.62,-000.10,18.9,25.2,05.4,03.7,0670.6,31.1
2021-06-08T20:41:00Z,00000200,00000000,0000.46,0000.60,0000.39,0000.08,-000.11,0000.22,0000.00,-000.26,0000.04,18.9,25.2,05.4,03.7,0670.6,31.1
2021-06-08T20:42:00Z,00000200,00000000,0000.28,0000.62,0000.05,0000.48,0000.14,-000.03,-000.28,0000.07,0000.13,18.9,25.2,05.2,03.5,0670.6,31.1
2021-06-08T20:43:00Z,00000200,00000000,0000.81,0000.77,0000.35,0000.13,-000.19,0000.14,0000.59,0000.08,0000.02,18.9,25.2,05.2,03.6,0670.6,31.1
2021-06-08T20:44:00Z,00000200,00000000,0001.55,0000.83,0000.47,-000.26,-000.06,0000.27,0000.21,0000.20,0000.20,18.9,25.2,05.2,03.6,0670.7,31.1
2021-06-08T20:45:00Z,00000200,00000000,0000.80,0000.54,0000.10,-000.53,0000.10,-000.11,-000.23,0000.32,0000.07,18.9,25.2,05.2,03.5,0670.7,31.0
2021-06-08T20:46:00Z,00000200,00000000,0000.80,0000.82,0000.20,-000.33,-000.14,0000.16,0000.50,0000.10,0000.01,18.9,25.2,05.1,03.5,0670.7,31.1
2021-06-08T20:47:00Z,00000200,00000000,0000.56,0000.47,-000.19,0000.04,-000.14,0000.16,0000.13,0000.53,0000.45,18.9,25.2,05.1,03.5,0670.7,31.1
2021-06-08T20:48:00Z,00000200,00000000,0000.54,0000.87,0000.26,0000.41,0000.09,0000.16,0000.43,-000.05,0000.07,18.9,25.1,05.1,03.5,0670.7,31.0
2021-06-08T20:49:00Z,00000200,00000000,0000.17,0000.61,0000.65,0000.35,0000.16,0000.37,0000.16,-000.06,0000.41,18.9,25.1,05.1,03.5,0670.7,31.0
2021-06-08T20:50:00Z,00000200,00000000,0000.90,0000.69,0000.06,0000.14,0000.03,0000.16,0000.27,0000.32,-000.09,18.8,25.1,05.1,03.5,0670.7,31.0
2021-06-08T20:51:00Z,00000200,00000000,0000.95,0000.53,0000.21,0000.32,-000.09,0000.02,0000.17,0000.28,0000.00,18.8,25.1,05.2,03.5,0670.6,31.1
2021-06-08T20:52:00Z,00000200,00000000,0001.03,0000.54,0000.26,0000.43,0000.13,0000.43,0000.64,0000.19,0000.36,18.8,25.1,05.2,03.5,0670.6,31.1
2021-06-08T20:53:00Z,00000200,00000000,0000.76,0000.41,0000.23,-000.27,0000.10,0000.26,0000.13,0000.65,0000.31,18.8,25.1,05.2,03.6,0670.6,31.1
2021-06-08T20:54:00Z,00000200,00000000,0001.01,0000.60,0000.26,0000.40,0000.14,0000.33,0000.05,0000.00,0000.06,18.8,25.1,05.4,03.7,0670.6,31.1
2021-06-08T20:55:00Z,00000200,00000000,0000.56,0000.48,0000.31,0000.12,0000.10,0000.15,0000.61,0000.24,0000.29,18.8,25.1,05.4,03.7,0670.6,31.1
2021-06-08T20:56:00Z,00000200,00000000,0001.10,0000.28,0000.54,0000.05,0000.05,0000.18,-000.28,0000.15,-000.06,18.8,25.1,05.3,03.6,0670.6,31.1
2021-06-08T20:57:00Z,00000200,40000000,,,,,,,0000.30,0000.18,0000.19,18.8,25.2,05.2,03.5,0670.6,31.1
2021-06-08T20:58:00Z,00000200,60000000,,,,,,,-000.01,-000.28,-000.23,18.6,25.3,05.4,03.5,0669.6,31.1
2021-06-08T20:59:00Z,00000200,20000000,,,,,,,-000.42,-000.04,-000.09,18.6,25.4,05.3,03.5,0669.5,31.1
